GW6228 Weather Reports


time (UTC)temp
C
wind
direction
speed
KPH
gust
KPH
rain 1hr
cm
rain 24hr
cm
rain mn
cm
humidity
%
barometer
mb
20260510202405 6 51 0.0 0.0 0.00 0.00 0.00 99 1014.5
20260510201845 6 63 0.0 0.0 0.00 0.00 0.00 99 1014.4
20260510201326 6 67 0.0 0.0 0.00 0.00 0.00 99 1014.5
20260510200806 6 72 0.0 0.0 0.00 0.00 0.00 99 1014.3
20260510200245 6 64 0.0 0.0 0.00 0.00 0.00 99 1014.1
20260510195725 6 23 0.0 0.0 0.00 0.00 0.00 99 1014.3
20260510195205 6 42 0.0 0.0 0.00 0.00 0.00 99 1014.4
20260510194645 6 84 0.0 0.0 0.00 0.00 0.00 99 1014.1
20260510194131 6 60 0.0 0.0 0.00 0.00 0.00 99 1014.1
20260510193621 7 66 0.0 0.0 0.00 0.00 0.00 99 1014.2
20260510193101 6 61 0.0 0.0 0.00 0.00 0.00 99 1014.0
20260510192524 6 80 0.0 0.0 0.00 0.00 0.00 99 1014.0
20260510192005 6 85 0.0 0.0 0.00 0.00 0.00 99 1014.1
20260510191445 6 57 0.0 0.0 0.00 0.00 0.00 99 1014.0
20260510190926 6 57 0.0 0.0 0.00 0.00 0.00 99 1013.9
20260510190406 6 58 0.0 0.0 0.00 0.00 0.00 99 1013.8
20260510185846 6 66 0.0 0.0 0.00 0.00 0.00 99 1013.9
20260510185326 6 39 0.0 0.0 0.00 0.00 0.00 99 1013.9
20260510184806 6 67 0.0 0.0 0.00 0.00 0.00 99 1013.8
20260510184246 6 70 0.0 0.0 0.00 0.00 0.00 99 1013.7
20260510183726 6 72 0.0 0.0 0.00 0.00 0.00 99 1013.5
20260510183206 6 96 0.0 0.0 0.00 0.00 0.00 99 1013.6
20260510182646 6 106 0.0 0.0 0.00 0.00 0.00 99 1013.7
20260510182126 6 129 0.0 0.0 0.00 0.00 0.00 99 1013.6
20260510181606 6 90 0.0 0.0 0.00 0.00 0.00 99 1013.2
20260510181045 7 85 0.0 0.0 0.00 0.00 0.00 99 1013.4
20260510180524 7 96 0.0 0.0 0.00 0.00 0.00 99 1013.6
20260510180005 7 133 0.0 0.0 0.00 0.00 0.00 99 1013.4
20260510175445 7 141 0.0 0.0 0.00 0.00 0.00 99 1013.5
20260510174924 7 152 0.0 0.0 0.00 0.00 0.00 99 1013.3
20260510174404 7 133 0.0 0.0 0.00 0.00 0.00 99 1013.3
20260510173845 7 153 0.0 0.0 0.00 0.00 0.00 99 1013.5
20260510173325 7 157 0.0 0.0 0.00 0.00 0.00 99 1013.2
20260510172805 7 170 0.0 0.0 0.00 0.00 0.00 99 1013.4
20260510172245 8 172 0.0 0.0 0.00 0.00 0.00 99 1013.5
20260510171725 8 175 0.0 0.0 0.00 0.00 0.00 99 1013.1
20260510171206 8 163 0.0 0.0 0.00 0.00 0.00 99 1013.3
20260510170646 8 155 0.0 0.0 0.00 0.00 0.00 99 1013.1
20260510170125 8 159 0.0 0.0 0.00 0.00 0.00 99 1013.2
20260510165605 8 165 0.0 0.0 0.00 0.00 0.00 99 1013.5
20260510165045 8 176 0.0 0.0 0.00 0.00 0.00 99 1013.4
20260510164524 8 166 0.0 0.0 0.00 0.00 0.00 99 1013.3
20260510164004 8 157 0.0 0.0 0.00 0.00 0.00 99 1013.2
20260510163445 8 160 0.0 0.0 0.00 0.00 0.00 99 1013.4
20260510162925 8 161 0.0 0.0 0.00 0.00 0.00 99 1013.3
20260510162405 8 163 0.0 0.0 0.00 0.00 0.00 99 1013.3
20260510161845 8 176 0.0 0.0 0.00 0.00 0.00 99 1013.4
20260510161325 8 173 0.0 0.0 0.00 0.00 0.00 99 1013.3
20260510160807 8 174 0.0 0.0 0.00 0.00 0.00 99 1013.5
20260510160246 9 164 0.0 0.0 0.00 0.00 0.00 99 1013.5
20260510155725 9 167 0.0 0.0 0.00 0.00 0.00 99 1013.4
20260510155204 9 159 0.0 0.0 0.00 0.00 0.00 99 1013.5
20260510154645 9 162 4.8 8.0 0.00 0.00 0.00 99 1013.3
20260510154124 9 152 1.6 4.8 0.00 0.00 0.00 99 1013.5
20260510153606 9 170 4.8 8.0 0.00 0.00 0.00 99 1013.4
20260510153047 9 164 4.8 8.0 0.00 0.00 0.00 99 1013.3
20260510152524 9 162 4.8 8.0 0.00 0.00 0.00 99 1013.4
20260510152004 9 186 4.8 8.0 0.00 0.00 0.00 99 1013.4
20260510151445 9 163 4.8 8.0 0.00 0.00 0.00 99 1013.6
20260510150924 9 182 4.8 8.0 0.00 0.00 0.00 99 1013.4
20260510150405 9 166 4.8 8.0 0.00 0.00 0.00 99 1013.5
20260510145845 9 181 6.4 8.0 0.00 0.00 0.00 99 1013.5
20260510145325 9 175 3.2 4.8 0.00 0.00 0.00 99 1013.4
20260510144805 9 158 6.4 8.0 0.00 0.00 0.00 99 1013.5
20260510144245 9 151 4.8 8.0 0.00 0.00 0.00 99 1013.5
20260510143725 9 160 4.8 8.0 0.00 0.00 0.00 99 1013.4
20260510143205 9 161 4.8 8.0 0.00 0.00 0.00 99 1013.5
20260510142645 9 176 4.8 8.0 0.00 0.00 0.00 99 1013.4
20260510142126 9 178 3.2 4.8 0.00 0.00 0.00 99 1013.4
20260510141606 9 178 4.8 8.0 0.00 0.00 0.00 99 1013.6
20260510141045 9 167 4.8 8.0 0.00 0.00 0.00 99 1013.5
20260510140527 9 172 4.8 8.0 0.00 0.00 0.00 99 1013.6
20260510140005 8 174 4.8 8.0 0.00 0.00 0.00 99 1013.5
20260510135445 8 163 3.2 4.8 0.00 0.00 0.03 98 1013.6
20260510134924 8 171 1.6 4.8 0.00 0.00 0.03 98 1013.7
20260510134405 8 167 3.2 4.8 0.00 0.00 0.03 98 1013.6
20260510133844 8 163 0.0 0.0 0.00 0.00 0.03 98 1013.6
20260510133324 8 168 0.0 0.0 0.00 0.00 0.03 98 1013.7
20260510132805 8 173 0.0 0.0 0.00 0.00 0.03 98 1013.6
20260510132245 8 164 0.0 0.0 0.00 0.00 0.03 98 1013.6
20260510131725 8 167 0.0 0.0 0.00 0.00 0.03 98 1013.8
20260510131204 7 175 0.0 0.0 0.00 0.00 0.03 98 1013.6
20260510130645 7 176 0.0 0.0 0.00 0.00 0.03 97 1013.8
20260510130125 7 163 0.0 0.0 0.00 0.00 0.03 97 1013.7
20260510125604 7 164 0.0 0.0 0.00 0.00 0.03 97 1013.8
20260510125045 7 159 0.0 0.0 0.00 0.00 0.03 97 1013.7
20260510124524 7 100 0.0 0.0 0.00 0.00 0.03 97 1013.6
20260510124004 7 170 0.0 0.0 0.00 0.00 0.03 97 1013.6
20260510123445 7 160 0.0 0.0 0.00 0.00 0.03 97 1013.7
20260510122925 6 165 0.0 0.0 0.00 0.00 0.03 97 1013.8
20260510122404 6 168 0.0 0.0 0.00 0.00 0.03 96 1013.8
20260510121844 6 105 0.0 0.0 0.00 0.00 0.03 96 1013.8
20260510121324 6 149 0.0 0.0 0.00 0.00 0.03 96 1013.8
20260510120805 6 30 0.0 0.0 0.00 0.00 0.03 96 1013.9
20260510120245 6 94 0.0 0.0 0.00 0.00 0.03 96 1013.9
20260510115725 6 133 0.0 0.0 0.00 0.00 0.03 96 1014.1
20260510115205 6 139 0.0 0.0 0.00 0.00 0.03 96 1013.8
20260510114645 6 29 0.0 0.0 0.00 0.00 0.03 96 1013.7
20260510114125 6 156 0.0 0.0 0.00 0.00 0.03 96 1013.6
20260510113604 6 40 0.0 0.0 0.00 0.00 0.03 95 1013.7
20260510113044 6 111 0.0 0.0 0.00 0.00 0.03 95 1013.8
20260510112524 6 153 0.0 0.0 0.00 0.00 0.03 95 1013.6
20260510112004 6 13 0.0 0.0 0.00 0.00 0.03 95 1013.6
20260510111445 6 150 0.0 0.0 0.00 0.00 0.03 95 1013.6
20260510110926 6 140 0.0 0.0 0.00 0.00 0.03 95 1013.5
20260510110405 6 121 0.0 0.0 0.00 0.00 0.03 95 1013.4
20260510105844 6 72 0.0 0.0 0.00 0.00 0.03 95 1013.7
20260510105324 6 56 0.0 0.0 0.00 0.00 0.03 95 1013.5
20260510104805 7 56 0.0 0.0 0.00 0.00 0.03 95 1013.5
20260510104244 7 74 0.0 0.0 0.00 0.00 0.03 95 1013.5
20260510103724 6 42 0.0 0.0 0.00 0.00 0.03 95 1013.6
20260510103204 7 43 0.0 0.0 0.00 0.00 0.03 94 1013.5
20260510102644 7 57 0.0 0.0 0.00 0.00 0.03 94 1013.5
20260510102124 6 47 0.0 0.0 0.00 0.00 0.03 94 1013.4
20260510101604 7 32 0.0 0.0 0.00 0.00 0.03 94 1013.5
20260510101044 7 19 0.0 0.0 0.00 0.00 0.03 94 1013.2
20260510100524 7 144 0.0 0.0 0.00 0.00 0.03 93 1013.4
20260510100004 7 159 0.0 0.0 0.00 0.00 0.03 93 1013.2
20260510095444 7 23 0.0 0.0 0.00 0.00 0.03 93 1013.2
20260510094924 7 128 0.0 0.0 0.00 0.00 0.03 93 1013.2
20260510094404 7 160 0.0 0.0 0.00 0.00 0.03 93 1013.3
20260510093845 7 162 0.0 0.0 0.00 0.00 0.03 93 1013.1
20260510093324 7 171 0.0 0.0 0.00 0.00 0.03 93 1013.1
20260510092804 7 161 0.0 0.0 0.00 0.00 0.03 92 1013.2
20260510092244 8 163 0.0 0.0 0.00 0.00 0.03 92 1013.1
20260510091724 8 158 0.0 0.0 0.00 0.00 0.03 92 1013.1
20260510091204 8 155 0.0 0.0 0.00 0.00 0.03 92 1013.0
20260510090644 8 157 0.0 0.0 0.00 0.00 0.03 92 1013.0
20260510090124 8 165 0.0 0.0 0.00 0.00 0.03 92 1013.0
20260510085604 8 168 0.0 0.0 0.00 0.00 0.03 91 1012.9
20260510085044 8 166 0.0 0.0 0.00 0.00 0.03 91 1012.7
20260510084523 8 135 0.0 0.0 0.00 0.00 0.03 91 1012.8
20260510084004 8 153 0.0 0.0 0.00 0.00 0.03 90 1012.8
20260510083445 8 131 0.0 0.0 0.00 0.00 0.03 90 1012.9
20260510082924 8 16 0.0 0.0 0.00 0.00 0.03 90 1012.7
20260510082404 9 134 0.0 0.0 0.00 0.00 0.03 89 1012.7
20260510081845 9 170 0.0 0.0 0.00 0.00 0.03 89 1012.5
20260510081324 9 156 0.0 0.0 0.00 0.00 0.03 88 1012.5
20260510080804 10 142 0.0 0.0 0.00 0.00 0.03 88 1012.4
20260510080244 10 156 0.0 0.0 0.00 0.00 0.03 88 1012.3
20260510075724 10 151 0.0 0.0 0.00 0.00 0.03 87 1012.3
20260510075204 10 142 0.0 0.0 0.00 0.00 0.03 87 1012.4
20260510074644 10 152 1.6 4.8 0.00 0.00 0.03 87 1012.0
20260510074125 10 155 1.6 4.8 0.00 0.00 0.03 86 1012.0
20260510073605 10 159 3.2 4.8 0.00 0.00 0.03 86 1012.1
20260510073044 11 150 3.2 4.8 0.00 0.00 0.03 86 1012.3
20260510072524 11 163 4.8 8.0 0.00 0.00 0.03 86 1012.2
20260510072003 11 155 4.8 8.0 0.00 0.00 0.03 85 1012.0
20260510071445 11 156 8.0 8.0 0.00 0.00 0.03 85 1012.0
20260510070924 11 165 6.4 8.0 0.00 0.00 0.03 85 1012.1
20260510070404 11 166 8.0 8.0 0.00 0.00 0.03 85 1012.3
20260510065844 11 154 9.7 12.9 0.00 0.00 0.03 84 1011.9
20260510065324 11 153 6.4 8.0 0.00 0.00 0.03 84 1011.9
20260510064804 11 164 8.0 12.9 0.00 0.00 0.03 84 1012.0
20260510064244 11 159 6.4 8.0 0.00 0.00 0.03 84 1011.9
20260510063724 12 183 8.0 12.9 0.00 0.00 0.03 84 1011.8
20260510063204 11 175 11.3 16.1 0.00 0.00 0.03 84 1011.9
20260510062645 11 168 8.0 12.9 0.00 0.00 0.03 84 1011.9
20260510062125 11 151 8.0 12.9 0.00 0.00 0.03 83 1011.9
20260510061605 12 167 9.7 12.9 0.00 0.00 0.03 83 1011.9
20260510061045 12 161 8.0 8.0 0.00 0.00 0.03 83 1011.8
20260510060525 12 168 11.3 16.1 0.00 0.00 0.03 82 1011.7
20260510060003 12 173 8.0 12.9 0.00 0.00 0.03 82 1011.6
20260510055444 12 159 8.0 12.9 0.00 0.00 0.03 82 1011.8
20260510054924 12 150 6.4 12.9 0.00 0.00 0.03 81 1011.5
20260510054404 12 175 8.0 12.9 0.00 0.00 0.03 80 1011.9
20260510053845 12 173 12.9 16.1 0.00 0.00 0.03 80 1011.5
20260510053324 12 166 12.9 20.9 0.00 0.00 0.03 79 1011.6
20260510052804 12 176 11.3 12.9 0.00 0.00 0.03 80 1011.5
20260510052244 12 153 9.7 16.1 0.00 0.00 0.03 81 1011.6
20260510051725 12 166 8.0 12.9 0.00 0.00 0.03 81 1011.8
20260510051204 12 138 11.3 16.1 0.00 0.00 0.03 81 1011.7
20260510050644 12 168 8.0 12.9 0.00 0.00 0.03 81 1011.6
20260510050124 12 176 11.3 16.1 0.00 0.00 0.03 81 1011.8
20260510045604 12 149 8.0 12.9 0.00 0.00 0.03 81 1011.6
20260510045044 12 150 8.0 12.9 0.00 0.00 0.03 80 1011.4
20260510044524 12 159 8.0 12.9 0.00 0.00 0.03 80 1011.7
20260510044003 13 165 8.0 8.0 0.00 0.00 0.03 80 1011.6
20260510043444 12 160 8.0 8.0 0.00 0.00 0.03 79 1011.4
20260510042924 13 164 11.3 16.1 0.00 0.00 0.03 79 1011.5
20260510042404 13 150 12.9 16.1 0.00 0.00 0.03 79 1011.4
20260510041845 13 142 9.7 12.9 0.00 0.00 0.03 78 1011.5
20260510041325 12 160 9.7 12.9 0.00 0.00 0.03 78 1011.6
20260510040804 13 159 8.0 12.9 0.00 0.00 0.03 78 1011.6
20260510040246 13 164 11.3 16.1 0.00 0.00 0.03 77 1011.6
20260510035724 13 165 6.4 8.0 0.00 0.00 0.03 76 1011.8
20260510035205 13 172 12.9 16.1 0.00 0.00 0.03 77 1011.7
20260510034645 13 157 14.5 20.9 0.00 0.00 0.03 75 1011.7
20260510034124 15 159 12.9 16.1 0.00 0.00 0.03 72 1011.6
20260510033604 14 158 12.9 16.1 0.00 0.00 0.03 77 1011.9
20260510033044 13 170 11.3 12.9 0.00 0.00 0.03 78 1011.7
20260510032525 13 150 11.3 16.1 0.00 0.00 0.03 77 1011.8
20260510032004 15 146 6.4 12.9 0.00 0.00 0.03 74 1011.7
20260510031446 14 165 6.4 8.0 0.00 0.00 0.03 77 1011.9
20260510030925 13 159 11.3 12.9 0.00 0.00 0.03 76 1011.8
20260510030405 14 160 11.3 20.9 0.00 0.00 0.03 75 1012.0
20260510025845 13 147 9.7 12.9 0.00 0.00 0.03 77 1011.9
20260510025324 13 167 9.7 12.9 0.00 0.00 0.03 79 1012.1
20260510024804 12 152 12.9 16.1 0.00 0.00 0.03 80 1012.1
20260510024245 12 140 9.7 12.9 0.00 0.00 0.03 79 1012.1
20260510023725 13 141 6.4 8.0 0.00 0.00 0.03 80 1012.1
20260510023204 13 157 12.9 16.1 0.00 0.00 0.03 79 1012.4
20260510022644 13 157 9.7 12.9 0.00 0.00 0.03 79 1012.3
20260510022124 13 170 11.3 16.1 0.00 0.00 0.03 79 1012.3
20260510021604 13 161 9.7 12.9 0.00 0.00 0.03 79 1012.6
20260510021045 13 159 8.0 12.9 0.00 0.00 0.03 80 1012.7
20260510020524 13 176 11.3 16.1 0.00 0.00 0.03 80 1012.5
20260510020005 12 159 9.7 12.9 0.00 0.00 0.03 80 1012.6
20260510015445 12 143 6.4 12.9 0.00 0.00 0.03 80 1012.5
20260510014924 13 163 9.7 12.9 0.00 0.00 0.03 79 1012.8
20260510014404 12 181 9.7 12.9 0.00 0.00 0.03 80 1012.8
20260510013844 12 171 12.9 16.1 0.00 0.00 0.03 81 1012.9
20260510013324 12 144 9.7 16.1 0.00 0.00 0.03 81 1013.0
20260510012804 13 154 8.0 8.0 0.00 0.00 0.03 80 1013.0
20260510012245 12 166 12.9 20.9 0.00 0.00 0.03 82 1013.1
20260510011726 12 155 14.5 20.9 0.00 0.00 0.03 83 1013.0
20260510011204 12 155 12.9 16.1 0.00 0.00 0.03 84 1013.3
20260510010644 12 165 11.3 20.9 0.00 0.00 0.03 84 1013.1
20260510010126 12 141 8.0 12.9 0.00 0.00 0.03 85 1013.2
20260510005604 11 165 9.7 12.9 0.00 0.00 0.03 86 1013.0
20260510005045 11 158 14.5 20.9 0.00 0.00 0.03 88 1013.3
20260510004524 11 172 14.5 16.1 0.00 0.00 0.03 89 1013.0
20260510004004 11 178 12.9 16.1 0.00 0.00 0.03 92 1013.3
20260510003445 11 178 16.1 16.1 0.00 0.00 0.03 94 1013.1
20260510002925 11 168 12.9 16.1 0.00 0.00 0.03 96 1013.0
20260510002405 11 158 8.0 12.9 0.00 0.00 0.03 98 1013.2
20260510001845 11 178 8.0 12.9 0.00 0.00 0.03 99 1013.3
20260510001325 11 158 8.0 12.9 0.00 0.00 0.03 99 1013.2
20260510000805 11 154 9.7 16.1 0.00 0.00 0.03 99 1013.1
20260510000245 10 174 8.0 12.9 0.00 0.00 0.03 99 1013.1
20260509235725 10 175 12.9 16.1 0.00 0.00 0.03 99 1013.1
20260509235205 10 147 8.0 12.9 0.00 0.00 0.03 99 1013.2
20260509234646 10 180 8.0 12.9 0.00 0.00 0.03 99 1013.2
20260509234125 10 164 9.7 12.9 0.00 0.00 0.03 99 1013.3
20260509233606 10 170 8.0 12.9 0.00 0.00 0.03 99 1013.0
20260509233045 10 177 9.7 12.9 0.00 0.00 0.03 99 1012.8
20260509232525 10 171 9.7 12.9 0.00 0.00 0.03 99 1013.0
20260509232005 10 151 9.7 16.1 0.00 0.00 0.03 99 1013.1
20260509231445 10 155 11.3 12.9 0.00 0.00 0.03 99 1013.1
20260509230925 10 187 8.0 12.9 0.00 0.00 0.03 99 1012.7
20260509230405 10 176 8.0 12.9 0.00 0.00 0.03 99 1012.9
20260509225845 10 131 9.7 16.1 0.00 0.00 0.03 99 1013.1
20260509225325 10 155 12.9 16.1 0.00 0.00 0.03 99 1012.9
20260509224804 10 155 11.3 16.1 0.00 0.00 0.03 99 1012.7
20260509224245 10 173 9.7 16.1 0.00 0.00 0.03 99 1012.7
20260509223725 10 158 11.3 16.1 0.00 0.00 0.03 99 1012.7
20260509223205 10 163 11.3 12.9 0.00 0.00 0.03 99 1012.7
20260509222645 10 188 8.0 12.9 0.00 0.00 0.03 99 1012.7
20260509222130 10 160 11.3 16.1 0.00 0.00 0.03 99 1012.6
20260509221620 10 157 11.3 16.1 0.00 0.00 0.03 99 1012.8
20260509221100 10 151 8.0 12.9 0.00 0.00 0.03 99 1012.5
20260509220540 10 162 11.3 12.9 0.00 0.00 0.03 99 1012.6
20260509220025 10 161 14.5 16.1 0.00 0.00 0.03 99 1012.3
20260509215515 10 150 12.9 16.1 0.00 0.00 0.03 99 1012.5
20260509214956 10 147 3.2 8.0 0.00 0.00 0.03 99 1012.2